Location: Chabowo
(53.2290°N, 14.7660°E)
Time: 15:25:04
(UTC+00:00)

Daily predictions for brighter satellites

Satellite Brightness Start Highest point End
(mag) Time Altitude Azimuth Time Altitude Azimuth Time Altitude Azimuth
CZ-4C R/B 4.0 19:56:10 10° NW 20:01:47 37° NNE 20:08:45 10° E
IRS-1C Rocket 4.5 19:59:41 10° S 20:04:55 67° WSW 20:10:12 10° NNW
SL-23 DEB 4.3 20:02:05 10° W 20:05:40 58° SSW 20:11:18 10° ESE
Cosmos 2154 Rocket 4.1 20:02:12 10° S 20:08:32 81° E 20:14:56 10° NNE
Cosmos 1048 Rocket 4.5 20:03:32 10° NNW 20:08:49 62° WSW 20:14:06 10° S
Cosmos 2074 Rocket 4.2 20:03:52 10° SSW 20:10:08 82° W 20:16:28 10° N
Cosmos 1869 3.4 20:07:10 10° N 20:10:58 60° ENE 20:14:45 10° SSE
Meteor 2-11 Rocket 4.5 20:06:01 10° S 20:12:09 82° E 20:18:20 10° NNE
Ariane Rocket 3.0 20:08:26 10° SSE 20:13:30 88° E 20:18:36 10° NNW
Cosmos 921 Rocket 3.9 20:12:23 10° NNW 20:16:21 44° WSW 20:20:20 10° S
MOS 1 Rocket 3.5 20:13:11 10° S 20:17:49 70° WSW 20:22:14 10° NNW
SPOT 5 4.1 20:13:10 10° SSW 20:17:51 42° W 20:22:46 10° NNW
ISS -3.8 20:15:16 10° WSW 20:18:34 62° S 20:21:51 10° E
ARIANE 5 R/B 4.1 20:22:05 10° ESE 20:25:44 25° ENE 20:29:23 10° N
GENESIS II 3.9 20:22:50 10° NW 20:26:27 90° ENE 20:29:52 11° SE
Cosmos 2228 3.2 20:23:21 10° N 20:27:31 54° ENE 20:31:33 10° SSE
NOSS 2-3 (D) 3.4 20:25:57 10° SSW 20:29:33 51° SE 20:33:38 10° NE
Geosat 4.4 20:25:08 10° NE 20:29:57 44° ESE 20:34:43 10° S
Cosmos 1943 Rocket 4.0 20:27:35 10° ESE 20:30:00 13° E 20:32:24 10° ENE
CZ-4C R/B 4.1 20:28:06 10° N 20:31:46 50° WNW 20:35:15 10° SW
Timation 2 Rocket 3.9 20:28:13 10° SSW 20:34:29 74° ESE 20:40:33 10° NE
Gbstr 26 Del rocket 3.3 20:30:03 10° WSW 20:34:32 71° S 20:40:05 10° E
Cosmos 1125 Rocket 3.6 20:31:11 10° S 20:36:25 65° ESE 20:41:41 10° NNE
USA 276 3.6 20:38:44 10° WSW 20:41:02 20° SSW 20:42:48 13° SSE
NOSS 3-1 (C) 4.2 20:37:32 10° SSE 20:41:27 24° ESE 20:45:56 10° ENE
SPOT 3 Rocket 4.0 20:39:19 10° S 20:44:27 59° WSW 20:49:38 10° NNW
Cosmos 2084 3.2 20:40:54 10° SW 20:44:59 76° SE 20:48:55 10° NE
Cosmos 2084 Rocket 3.9 20:43:12 10° NW 20:47:08 51° NNE 20:50:59 10° ESE
Cosmos 2366 rocket 4.1 20:46:21 10° S 20:52:23 60° E 20:58:25 10° NNE
NOSS 2-2 (E) 2.7 20:49:15 10° SW 20:52:24 89° WNW 20:55:39 10° NE
SeaSat 1 3.6 20:47:59 10° ESE 20:52:27 36° NE 20:56:56 10° NNW
NOSS 2-2 (C) 3.3 20:49:42 10° WSW 20:52:47 62° NW 20:56:02 10° NE
Landsat 4 4.1 20:50:00 10° S 20:53:19 50° WSW 20:56:41 10° NNW
Cosmos 1544 Rocket 3.8 20:49:30 10° NNW 20:53:49 68° W 20:58:03 10° S
Terra 3.3 20:54:21 10° SSW 20:58:34 32° W 21:02:49 10° NNW
NOSS 2-3 (E) 3.3 20:54:56 10° SW 20:58:38 87° NW 21:02:59 10° NE
Cosmos 1812 4.1 20:57:01 10° NNE 21:00:00 24° ENE 21:02:28 13° ESE
SL-8 Rocket 4.0 20:56:19 10° S 21:02:34 79° E 21:08:54 10° NNE
Meteor 1-27 4.3 21:00:48 10° NNW 21:06:31 86° WSW 21:11:28 13° S
USA 305 2.6 21:03:36 10° W 21:07:20 71° N 21:10:36 10° E
ATLAS CENTAUR R/B 3.5 21:04:57 10° WNW 21:07:32 17° WSW 21:10:10 10° SSW
Cosmos 1437 Rocket 2.5 21:07:20 11° S 21:10:51 87° E 21:14:30 10° NNE
Cosmos 1833 Rocket 3.3 21:08:12 10° NW 21:13:39 50° WSW 21:18:22 14° S
CENTAUR R/B 4.3 21:08:08 10° WNW 21:14:56 41° NNE 21:22:59 10° E
NOSS 2-3 (C) 3.7 21:12:45 10° WSW 21:16:26 67° NW 21:20:50 10° NE
NOSS 3-1 (A) 4.4 21:16:36 16° SE 21:18:55 21° ESE 21:23:10 10° ENE
Cosmos 44 3.4 21:16:34 10° SSW 21:21:46 68° SE 21:26:45 10° NE
Lacrosse 5 2.3 21:19:12 10° W 21:24:14 67° NNW 21:29:19 10° ENE
Cosmos 1606 Rocket 3.5 21:22:34 10° N 21:26:56 79° E 21:29:59 19° SSE
Cosmos 2082 Rocket 2.3 21:21:29 10° NNW 21:27:09 75° ENE 21:31:39 16° SE
Cosmos 1726 Rocket 3.7 21:24:49 10° N 21:29:08 64° ENE 21:32:05 20° SSE
Landsat 5 3.9 21:25:03 10° N 21:29:26 68° WNW 21:33:46 10° SSW
Cosmos 2218 Rocket 4.0 21:24:00 10° SSW 21:30:09 82° W 21:36:23 10° N
NOSS 2-2 (D) 3.9 21:27:17 10° WSW 21:30:18 45° NW 21:33:29 10° NE
USA 307 2.6 21:26:42 10° W 21:30:36 79° N 21:34:13 10° E
ATLAS 5 CENTAUR R/B 3.5 21:27:35 10° W 21:30:43 28° NNW 21:34:20 10° NE
Cosmos 2278 Rocket 2.4 21:31:13 12° S 21:36:14 55° ESE 21:41:46 10° NE
Cosmos 2298 Rocket 4.2 21:35:16 10° SSW 21:40:36 75° WNW 21:45:58 10° NNE
ULPM Upper Stage 2.8 21:36:52 10° NW 21:41:16 84° NE 21:44:39 17° SE
CZ-2C R/B 3.7 21:38:10 10° NNE 21:42:47 72° ESE 21:46:20 17° S
H-2A R/B 2.5 21:44:33 21° SE 21:46:58 60° ENE 21:50:45 10° N
CZ-4C R/B 3.1 21:44:38 10° NW 21:51:15 71° NE 21:59:31 10° ESE
Cosmos 1536 Rocket 4.2 21:47:10 10° SSW 21:51:22 51° WNW 21:55:37 10° N
COSMOS 2455 4.4 21:48:38 10° NW 21:54:04 33° NNE 21:59:30 10° E
Cosmos 2058 Rocket 3.2 21:50:26 10° N 21:54:46 63° ENE 21:57:25 22° SSE
Iridium 921 4.3 21:53:03 25° S 21:54:53 81° E 21:58:18 10° N
ISS -3.7 21:51:55 10° W 21:55:10 56° SSW 21:57:17 20° ESE
COSMOS 2406 3.2 21:51:01 10° NNW 21:56:44 87° WSW 22:00:48 20° SSE
Cosmos 1782 3.9 21:53:58 10° N 21:57:26 31° ENE 21:59:39 18° ESE
Cosmos 1934 Rocket 4.4 21:54:43 19° SSE 21:59:01 50° E 22:04:59 10° NNE
USA 290 2.1 21:58:15 27° S 21:59:49 66° ESE 22:03:00 10° NNE
ARIANE 5 R/B 3.1 21:58:54 19° S 22:01:51 52° W 22:06:14 10° NNW
Cosmos 1269 Rocket 4.4 21:58:28 10° NNW 22:03:39 55° WSW 22:07:06 21° S
Cosmos 1727 Rocket 4.4 21:57:39 10° NNW 22:03:54 61° W 22:08:48 17° SSW
ATLAS 3B R/B 3.2 22:01:26 16° S 22:06:54 47° ESE 22:14:08 10° NE
NOSS 8 (H) 4.2 22:07:22 10° NW 22:10:21 77° SW 22:12:06 27° SE
NOSS 8 (E) 4.4 22:09:05 10° NW 22:12:03 57° SW 22:13:29 30° SSE
Cosmos 1943 Rocket 2.2 22:08:20 17° SSW 22:12:40 65° ESE 22:18:15 10° NE
USA 281 3.4 22:09:48 15° SE 22:15:18 72° ENE 22:21:53 10° NNW
Cosmos 1821 Rocket 4.3 22:09:49 13° SSW 22:15:31 66° WNW 22:21:54 10° N
Gbstr 26 Del rocket 3.5 22:16:13 10° W 22:21:09 71° SSW 22:27:20 10° ESE
Cosmos 2058 2.8 22:19:03 26° S 22:21:18 75° E 22:25:24 10° NNE
ALOS 2 2.6 22:19:19 25° SSE 22:21:51 84° WSW 22:26:17 10° NNW
H-2A R/B 3.7 22:19:55 10° NE 22:22:55 20° E 22:24:34 16° ESE
Spot 2 4.1 22:20:40 24° SSE 22:23:21 86° ENE 22:27:40 10° NNW
Cosmos 1023 Rocket 4.5 22:19:01 10° NNW 22:24:06 71° WSW 22:27:12 24° S
Cosmos 407 Rocket 3.5 22:19:56 10° NNW 22:25:07 80° ENE 22:28:37 21° SSE
Cosmos 2084 Rocket 4.2 22:22:31 10° WNW 22:26:03 31° SW 22:27:21 25° SSW
Spot 4 4.1 22:23:23 23° S 22:26:21 59° WSW 22:31:11 10° NNW
Alouette 2 Rocket 3.9 22:24:00 25° S 22:26:28 72° E 22:32:21 10° NNE
SeaSat 1 2.7 22:26:56 24° S 22:29:46 54° WSW 22:34:37 10° NW
Cosmos 1544 1.8 22:30:25 60° WSW 22:30:38 66° WNW 22:32:50 10° N
NOSS 3-1 (C) 3.3 22:26:16 10° SW 22:31:22 81° NW 22:37:42 10° NE
Cosmos 192 4.4 22:28:59 23° S 22:31:58 64° ESE 22:36:54 10° NNE
Cosmos 1812 3.8 22:31:35 10° NNW 22:34:45 31° W 22:36:28 20° SW
Cosmos 1271 Rocket 3.2 22:33:32 28° SSE 22:35:03 43° E 22:38:39 10° NNE
Cosmos 1605 Rocket 4.2 22:32:33 22° SSE 22:36:27 56° E 22:42:28 10° NNE
Cosmos 1666 4.3 22:37:15 16° ESE 22:38:26 19° E 22:40:54 10° NE
USA 305 2.1 22:36:07 10° WNW 22:39:34 60° SSW 22:40:34 36° SE
Cosmos 1238 Rocket 2.6 22:37:06 10° NNW 22:40:24 66° W 22:42:01 30° S
BREEZE-M R/B 4.4 22:39:30 10° WSW 22:44:34 68° SSE 23:06:09 10° E
Cosmos 1758 Rocket 4.1 22:43:54 25° SSE 22:46:00 46° E 22:50:08 10° NNE
Timation 1 Rocket 4.3 22:40:17 10° NW 22:46:20 86° WSW 22:50:42 20° SSE
Cosmos 1461 4.4 22:43:47 10° NNW 22:47:15 32° NNE 22:50:44 10° E
Cosmos 2251 Rocket 3.5 22:42:16 10° NNW 22:47:40 81° WSW 22:51:01 23° SSE
Cosmos 1892 Rocket 4.4 22:45:05 17° SW 22:48:16 47° WNW 22:52:35 10° N
Cosmos 1500 4.1 22:47:50 24° SE 22:48:59 30° E 22:51:59 10° NNE
Cosmos 2297 4.5 22:46:44 22° SSE 22:49:42 37° ESE 22:54:55 10° NE
Cosmos 1626 Rocket 3.5 22:48:21 28° S 22:50:34 73° E 22:54:52 10° NNE
Cosmos 1933 3.2 22:47:17 10° N 22:51:15 82° E 22:53:09 29° SSE
Cosmos 1140 Rocket 4.0 22:47:09 10° NW 22:52:03 46° WSW 22:54:48 24° SSW
Cosmos 1954 Rocket 4.2 22:53:54 10° NNW 22:59:04 67° ENE 23:02:58 17° SE
SJ 16-02 4.1 22:57:11 10° N 22:59:44 15° NE 23:02:16 10° ENE
Cosmos-2242 3.1 22:59:37 10° NNW 23:03:48 60° W 23:05:51 28° SSW
USA 307 2.4 23:00:06 10° WNW 23:03:50 57° SSW 23:05:32 26° SE
CENTAUR R/B 3.5 22:59:09 10° NW 23:06:55 69° NE 23:15:59 10° ESE
Lacrosse 5 2.6 23:02:41 10° WNW 23:07:42 57° N 23:12:43 10° E
NOSS 3-1 (A) 3.2 23:03:57 12° SW 23:08:46 87° NW 23:15:07 10° NE
Cosmos 2082 Rocket 3.6 23:06:18 10° NW 23:10:41 24° WSW 23:13:28 16° SW
Cosmos 1515 4.2 23:10:23 10° NNW 23:13:41 41° W 23:14:57 29° SW
Cosmos 2056 Rocket 4.2 23:11:01 23° SSE 23:13:49 40° ESE 23:18:41 10° NE
ATLAS 5 CENTAUR R/B 4.3 23:12:34 10° NW 23:15:39 21° N 23:19:12 10° NE
Cosmos 1656 Rocket 3.8 23:13:39 24° S 23:16:50 58° ESE 23:22:17 10° NE
PSLV R/B 3.7 23:15:26 10° N 23:19:43 69° WNW 23:22:20 24° SSW
ULPM Upper Stage 4.2 23:16:57 10° WNW 23:20:12 21° WSW 23:20:59 20° SW
Cosmos 2278 Rocket 3.5 23:15:19 10° WSW 23:20:34 38° NW 23:25:51 10° NNE
Lacrosse 4 Rocket 2.8 23:20:40 20° SE 23:21:56 24° ESE 23:25:15 10° ENE
H-2A R/B 4.4 23:20:31 13° WSW 23:22:14 16° W 23:24:43 10° NW
Cosmos 2369 Rocket 2.6 23:19:37 24° S 23:22:46 49° ESE 23:28:11 10° NE
Iridium 4 Rocket 3.8 23:22:20 10° N 23:28:02 87° E 23:31:55 23° S
Cosmos 1190 Rocket 4.1 23:24:36 10° NNW 23:29:45 60° WSW 23:32:46 24° S
ISS -1.9 23:28:53 10° W 23:30:09 17° WSW 23:30:09 17° WSW
Cosmos 1782 4.1 23:29:46 10° NNW 23:33:00 27° W 23:34:35 20° SW
Cosmos 676 Rocket 3.9 23:27:58 10° NNW 23:33:11 85° WSW 23:36:47 20° SSE
USA 229 DEB 3.7 23:32:18 21° SSW 23:36:32 62° SE 23:43:20 10° NE
USA 229 3.7 23:32:27 21° SSW 23:36:40 62° SE 23:43:27 10° NE
Cosmos 1378 4.2 23:34:25 10° NNW 23:37:09 26° W 23:38:06 22° WSW
Cosmos 1862 3.3 23:35:38 28° SSW 23:37:29 70° WNW 23:41:22 10° N
NOSS 3-2 (A) 4.3 23:30:37 10° NW 23:37:33 69° NE 23:45:53 10° ESE
Cosmos 2297 Rocket 4.4 23:33:55 10° NNW 23:38:38 26° NE 23:43:20 10° E
CZ-4C R/B 3.4 23:33:04 10° NW 23:39:45 45° WSW 23:45:35 19° S
COSMOS 2455 2.8 23:34:38 10° NW 23:40:43 89° WSW 23:46:46 10° SE
Cosmos 482 Debris 3.7 23:36:40 10° W 23:40:46 73° S 23:43:44 10° E
Cosmos 1340 Rocket 3.3 23:38:21 10° N 23:42:10 53° ENE 23:44:46 19° SE
Meteor 2-21 Rocket 4.5 23:36:54 10° N 23:43:03 85° ENE 23:47:40 19° SSE
Resurs 1-4 Rocket 4.3 23:40:03 10° NE 23:43:21 16° E 23:46:38 10° SE
Cosmos 2221 2.4 23:40:16 10° NNW 23:44:31 79° W 23:46:52 26° S
Cosmos 2285 Rocket 4.4 23:45:25 10° NNW 23:51:33 48° WSW 23:55:34 21° SSW
